owner,sensor,date,latitude,longitude,vertical_datum,direction_of_sea_water_velocity,sea_water_speed,upward_sea_water_velocity,qcFlag 
ADCP,ioos:station:wmo:42890:1,2011-02-01T00:04:00Z,27.6250,-90.4410,15.2,91.0,23.6,-9999.0,'11111222,11111222,99999999' 
ADCP,ioos:station:wmo:42890:1,2011-02-01T00:24:00Z,27.6250,-90.4410,15.2,93.0,22.8,-9999.0,'11111222,11111222,99999999' 
ADCP,ioos:station:wmo:42890:1,2011-02-01T00:44:00Z,27.6250,-90.4410,15.2,98.0,19.0,-9999.0,'11111222,11111222,99999999' 
ADCP,ioos:station:wmo:42890:1,2011-02-01T01:04:00Z,27.6250,-90.4410,15.2,96.0,16.0,-9999.0,'11111222,11111222,99999999' 
ADCP,ioos:station:wmo:42890:1,2011-02-01T01:24:00Z,27.6250,-90.4410,15.2,98.0,13.6,-9999.0,'11111222,11111222,99999999' 
ADCP,ioos:station:wmo:42890:1,2011-02-01T01:44:00Z,27.6250,-90.4410,15.2,93.0,13.6,-99999.0,'1111122,1111122,1199999999' 
ADCP,ioos:station:wmo:42890:1,2011-02-01T02:04:00Z,27.6250,-90.4410,15.2,95.0,14.9,-9999.0,'11111222,11111222,99999999' 
ADCP,ioos:station:wmo:42890:1,2011-02-01T02:24:00Z,27.6250,-90.4410,15.2,93.0,13.8,-9999.0,'11111222,11111222,99999999' 
ADCP,ioos:station:wmo:42890:1,2011-02-01T02:44:00Z,27.6250,-90.4410,15.2,91.0,14.3,-9999.0,'11111222,11111222,99999999' 
ADCP,ioos:station:wmo:42890:1,2011-02-01T03:04:00Z,27.6250,-90.4410,15.2,91.0,15.5,-9999.0,'11111222,11111222,99999999' 
ADCP,ioos:station:wmo:42890:1,2011-02-01T03:24:00Z,27.6250,-90.4410,15.2,80.0,15.6,-9999.0,'11111222,11111222,99999999' 
ADCP,ioos:station:wmo:42890:1,2011-02-01T03:44:00Z,27.6250,-90.4410,15.2,81.0,17.8,-9999.0,'11111222,11111222,99999999' 
ADCP,ioos:station:wmo:42890:1,2011-02-01T04:04:00Z,27.6250,-90.4410,15.2,77.0,14.7,-9999.0,'11111222,11111222,99999999' 
ADCP,ioos:station:wmo:42890:1,2011-02-01T04:24:00Z,27.6250,-90.4410,15.2,74.0,14.5,-9999.0,'11111222,11111222,99999999' 
ADCP,ioos:station:wmo:42890:1,2011-02-01T04:44:00Z,27.6250,-90.4410,15.2,68.0,12.3,-9999.0,'11111222,11111222,99999999' 
ADCP,ioos:station:wmo:42890:1,2011-02-01T05:04:00Z,27.6250,-90.4410,15.2,57.0,14.6,-9999.0,'11111222,11111222,99999999' 
ADCP,ioos:station:wmo:42890:1,2011-02-01T05:24:00Z,27.6250,-90.4410,15.2,33.0,13.4,-9999.0,'11111222,11111222,99999999' 
ADCP,ioos:station:wmo:42890:1,2011-02-01T05:44:00Z,27.6250,-90.4410,15.2,33.0,12.9,-99999.0,'1111122,1111122,1199999999' 
ADCP,ioos:station:wmo:42890:1,2011-02-01T06:04:00Z,27.6250,-90.4410,15.2,38.0,16.3,-9999.0,'11111222,11111222,99999999' 
ADCP,ioos:station:wmo:42890:1,2011-02-01T06:24:00Z,27.6250,-90.4410,15.2,26.0,16.2,-9999.0,'11111222,11111222,99999999' 
ADCP,ioos:station:wmo:42890:1,2011-02-01T06:44:00Z,27.6250,-90.4410,15.2,27.0,18.0,-99999.0,'1111122,1111122,1199999999' 
ADCP,ioos:station:wmo:42890:1,2011-02-01T07:04:00Z,27.6250,-90.4410,15.2,29.0,19.5,-9999.0,'11111222,11111222,99999999' 
ADCP,ioos:station:wmo:42890:1,2011-02-01T07:24:00Z,27.6250,-90.4410,15.2,34.0,20.2,-9999.0,'11111222,11111222,99999999' 
ADCP,ioos:station:wmo:42890:1,2011-02-01T07:44:00Z,27.6250,-90.4410,15.2,34.0,20.0,-9999.0,'11111222,11111222,99999999' 
ADCP,ioos:station:wmo:42890:1,2011-02-01T08:04:00Z,27.6250,-90.4410,15.2,31.0,19.3,-9999.0,'11111222,11111222,99999999' 
ADCP,ioos:station:wmo:42890:1,2011-02-01T08:24:00Z,27.6250,-90.4410,15.2,32.0,20.5,-9999.0,'11111222,11111222,99999999' 
ADCP,ioos:station:wmo:42890:1,2011-02-01T08:44:00Z,27.6250,-90.4410,15.2,31.0,17.9,-99999.0,'1111122,1111122,1199999999' 
ADCP,ioos:station:wmo:42890:1,2011-02-01T09:04:00Z,27.6250,-90.4410,15.2,28.0,18.6,-9999.0,'11111222,11111222,99999999' 
ADCP,ioos:station:wmo:42890:1,2011-02-01T09:24:00Z,27.6250,-90.4410,15.2,29.0,19.4,-9999.0,'11111222,11111222,99999999' 
ADCP,ioos:station:wmo:42890:1,2011-02-01T09:44:00Z,27.6250,-90.4410,15.2,19.0,18.3,-99999.0,'1111122,1111122,1199999999' 
ADCP,ioos:station:wmo:42890:1,2011-02-01T10:04:00Z,27.6250,-90.4410,15.2,13.0,14.9,-9999.0,'11111222,11111222,99999999' 
ADCP,ioos:station:wmo:42890:1,2011-02-01T10:24:00Z,27.6250,-90.4410,15.2,27.0,18.2,-9999.0,'11111222,11111222,99999999' 
ADCP,ioos:station:wmo:42890:1,2011-02-01T10:44:00Z,27.6250,-90.4410,15.2,27.0,15.7,-9999.0,'11111222,11111222,99999999' 
ADCP,ioos:station:wmo:42890:1,2011-02-01T11:04:00Z,27.6250,-90.4410,15.2,2.0,13.2,-9999.0,'11111222,11111222,99999999' 
ADCP,ioos:station:wmo:42890:1,2011-02-01T11:24:00Z,27.6250,-90.4410,15.2,18.0,12.5,-9999.0,'11111222,11111222,99999999' 
ADCP,ioos:station:wmo:42890:1,2011-02-01T11:44:00Z,27.6250,-90.4410,15.2,355.0,13.0,-99999.0,'1111122,1111122,1199999999' 
ADCP,ioos:station:wmo:42890:1,2011-02-01T12:04:00Z,27.6250,-90.4410,15.2,32.0,24.3,-9999.0,'11111222,11111222,99999999' 
ADCP,ioos:station:wmo:42890:1,2011-02-01T12:24:00Z,27.6250,-90.4410,15.2,24.0,20.7,-9999.0,'11111222,11111222,99999999' 
ADCP,ioos:station:wmo:42890:1,2011-02-01T12:44:00Z,27.6250,-90.4410,15.2,2.0,16.6,-9999.0,'11111222,11111222,99999999' 
ADCP,ioos:station:wmo:42890:1,2011-02-01T13:04:00Z,27.6250,-90.4410,15.2,15.0,18.5,-9999.0,'11111222,11111222,99999999' 
ADCP,ioos:station:wmo:42890:1,2011-02-01T13:24:00Z,27.6250,-90.4410,15.2,19.0,20.4,-9999.0,'11111222,11111222,99999999' 
ADCP,ioos:station:wmo:42890:1,2011-02-01T13:44:00Z,27.6250,-90.4410,15.2,18.0,20.0,-9999.0,'11111222,11111222,99999999' 
ADCP,ioos:station:wmo:42890:1,2011-02-01T14:04:00Z,27.6250,-90.4410,15.2,17.0,21.5,-9999.0,'11111222,11111222,99999999' 
ADCP,ioos:station:wmo:42890:1,2011-02-01T14:24:00Z,27.6250,-90.4410,15.2,4.0,20.0,-9999.0,'11111222,11111222,99999999' 
ADCP,ioos:station:wmo:42890:1,2011-02-01T14:44:00Z,27.6250,-90.4410,15.2,7.0,22.5,-9999.0,'11111222,11111222,99999999' 
ADCP,ioos:station:wmo:42890:1,2011-02-01T15:04:00Z,27.6250,-90.4410,15.2,18.0,24.5,-9999.0,'11111222,11111222,99999999' 
ADCP,ioos:station:wmo:42890:1,2011-02-01T15:24:00Z,27.6250,-90.4410,15.2,21.0,25.1,-9999.0,'11111222,11111222,99999999' 
ADCP,ioos:station:wmo:42890:1,2011-02-01T15:44:00Z,27.6250,-90.4410,15.2,21.0,26.7,-9999.0,'11111222,11111222,99999999' 
ADCP,ioos:station:wmo:42890:1,2011-02-01T16:04:00Z,27.6250,-90.4410,15.2,24.0,29.2,-9999.0,'11111222,11111222,99999999' 
ADCP,ioos:station:wmo:42890:1,2011-02-01T16:24:00Z,27.6250,-90.4410,15.2,26.0,30.9,-9999.0,'11111222,11111222,99999999' 
ADCP,ioos:station:wmo:42890:1,2011-02-01T16:44:00Z,27.6250,-90.4410,15.2,27.0,32.9,-9999.0,'11111222,11111222,99999999' 
ADCP,ioos:station:wmo:42890:1,2011-02-01T17:04:00Z,27.6250,-90.4410,15.2,33.0,29.3,-9999.0,'11111222,11111222,99999999' 
ADCP,ioos:station:wmo:42890:1,2011-02-01T17:24:00Z,27.6250,-90.4410,15.2,36.0,30.2,-9999.0,'11111222,11111222,99999999' 
ADCP,ioos:station:wmo:42890:1,2011-02-01T17:44:00Z,27.6250,-90.4410,15.2,32.0,28.7,-9999.0,'11111222,11111222,99999999' 
ADCP,ioos:station:wmo:42890:1,2011-02-01T18:04:00Z,27.6250,-90.4410,15.2,34.0,29.1,-9999.0,'11111222,11111222,99999999' 
ADCP,ioos:station:wmo:42890:1,2011-02-01T18:24:00Z,27.6250,-90.4410,15.2,34.0,31.0,-9999.0,'11111222,11111222,99999999' 
ADCP,ioos:station:wmo:42890:1,2011-02-01T18:44:00Z,27.6250,-90.4410,15.2,35.0,31.2,-99999.0,'1111122,1111122,1199999999' 
ADCP,ioos:station:wmo:42890:1,2011-02-01T19:04:00Z,27.6250,-90.4410,15.2,34.0,30.3,-9999.0,'11111222,11111222,99999999' 
ADCP,ioos:station:wmo:42890:1,2011-02-01T19:24:00Z,27.6250,-90.4410,15.2,38.0,32.9,-9999.0,'11111222,11111222,99999999' 
ADCP,ioos:station:wmo:42890:1,2011-02-01T19:44:00Z,27.6250,-90.4410,15.2,39.0,35.4,-9999.0,'11111222,11111222,99999999' 
ADCP,ioos:station:wmo:42890:1,2011-02-01T20:04:00Z,27.6250,-90.4410,15.2,40.0,34.1,-9999.0,'11111222,11111222,99999999' 
ADCP,ioos:station:wmo:42890:1,2011-02-01T20:24:00Z,27.6250,-90.4410,15.2,46.0,36.5,-9999.0,'11111222,11111222,99999999' 
ADCP,ioos:station:wmo:42890:1,2011-02-01T20:44:00Z,27.6250,-90.4410,15.2,47.0,36.1,-99999.0,'1111122,1111122,1199999999' 
ADCP,ioos:station:wmo:42890:1,2011-02-01T21:04:00Z,27.6250,-90.4410,15.2,50.0,35.8,-9999.0,'11111222,11111222,99999999' 
ADCP,ioos:station:wmo:42890:1,2011-02-01T21:24:00Z,27.6250,-90.4410,15.2,53.0,38.7,-9999.0,'11111222,11111222,99999999' 
ADCP,ioos:station:wmo:42890:1,2011-02-01T21:44:00Z,27.6250,-90.4410,15.2,55.0,39.8,-9999.0,'11111222,11111222,99999999' 
ADCP,ioos:station:wmo:42890:1,2011-02-01T22:04:00Z,27.6250,-90.4410,15.2,57.0,39.6,-9999.0,'11111222,11111222,99999999' 
ADCP,ioos:station:wmo:42890:1,2011-02-01T22:24:00Z,27.6250,-90.4410,15.2,62.0,39.5,-9999.0,'11111222,11111222,99999999' 
ADCP,ioos:station:wmo:42890:1,2011-02-01T22:44:00Z,27.6250,-90.4410,15.2,79.0,37.5,-9999.0,'11111222,11111222,99999999' 
ADCP,ioos:station:wmo:42890:1,2011-02-01T23:04:00Z,27.6250,-90.4410,15.2,84.0,38.0,-9999.0,'11111222,11111222,99999999' 
ADCP,ioos:station:wmo:42890:1,2011-02-01T23:24:00Z,27.6250,-90.4410,15.2,87.0,39.0,-9999.0,'11111222,11111222,99999999' 
ADCP,ioos:station:wmo:42890:1,2011-02-01T23:44:00Z,27.6250,-90.4410,15.2,92.0,40.3,-99999.0,'1111122,1111122,1199999999' 
ADCP,ioos:station:wmo:42890:1,2011-02-02T00:04:00Z,27.6250,-90.4410,15.2,95.0,40.6,-9999.0,'11111222,11111222,99999999' 
ADCP,ioos:station:wmo:42890:1,2011-02-02T00:24:00Z,27.6250,-90.4410,15.2,100.0,40.4,-9999.0,'11111222,11111222,99999999' 
ADCP,ioos:station:wmo:42890:1,2011-02-02T00:44:00Z,27.6250,-90.4410,15.2,104.0,38.7,-9999.0,'11111222,11111222,99999999' 
ADCP,ioos:station:wmo:42890:1,2011-02-02T01:04:00Z,27.6250,-90.4410,15.2,106.0,32.0,-9999.0,'11111222,11111222,99999999' 
ADCP,ioos:station:wmo:42890:1,2011-02-02T01:24:00Z,27.6250,-90.4410,15.2,110.0,28.9,-9999.0,'11111222,11111222,99999999' 
ADCP,ioos:station:wmo:42890:1,2011-02-02T01:44:00Z,27.6250,-90.4410,15.2,115.0,24.2,-99999.0,'1111122,1111122,1199999999' 
ADCP,ioos:station:wmo:42890:1,2011-02-02T02:04:00Z,27.6250,-90.4410,15.2,117.0,23.8,-9999.0,'11111222,11111222,99999999' 
ADCP,ioos:station:wmo:42890:1,2011-02-02T02:24:00Z,27.6250,-90.4410,15.2,120.0,24.4,-9999.0,'11111222,11111222,99999999' 
ADCP,ioos:station:wmo:42890:1,2011-02-02T02:44:00Z,27.6250,-90.4410,15.2,124.0,22.5,-99999.0,'1111122,1111122,1199999999' 
ADCP,ioos:station:wmo:42890:1,2011-02-02T03:04:00Z,27.6250,-90.4410,15.2,131.0,20.8,-9999.0,'11111222,11111222,99999999' 
ADCP,ioos:station:wmo:42890:1,2011-02-02T03:24:00Z,27.6250,-90.4410,15.2,128.0,23.8,-9999.0,'11111222,11111222,99999999' 
ADCP,ioos:station:wmo:42890:1,2011-02-02T03:44:00Z,27.6250,-90.4410,15.2,132.0,21.8,-9999.0,'11111222,11111222,99999999' 
ADCP,ioos:station:wmo:42890:1,2011-02-02T04:04:00Z,27.6250,-90.4410,15.2,132.0,20.5,-9999.0,'11111222,11111222,99999999' 
ADCP,ioos:station:wmo:42890:1,2011-02-02T04:24:00Z,27.6250,-90.4410,15.2,135.0,19.2,-9999.0,'11111222,11111222,99999999' 
ADCP,ioos:station:wmo:42890:1,2011-02-02T04:44:00Z,27.6250,-90.4410,15.2,140.0,17.5,-9999.0,'11111222,11111222,99999999' 
ADCP,ioos:station:wmo:42890:1,2011-02-02T05:04:00Z,27.6250,-90.4410,15.2,145.0,16.9,-9999.0,'11111222,11111222,99999999' 
ADCP,ioos:station:wmo:42890:1,2011-02-02T05:24:00Z,27.6250,-90.4410,15.2,163.0,16.9,-9999.0,'11111222,11111222,99999999' 
ADCP,ioos:station:wmo:42890:1,2011-02-02T05:44:00Z,27.6250,-90.4410,15.2,195.0,16.6,-9999.0,'11111222,11111222,99999999' 
ADCP,ioos:station:wmo:42890:1,2011-02-02T06:04:00Z,27.6250,-90.4410,15.2,203.0,18.5,-9999.0,'11111222,11111222,99999999' 
ADCP,ioos:station:wmo:42890:1,2011-02-02T06:24:00Z,27.6250,-90.4410,15.2,206.0,15.5,-9999.0,'11111222,11111222,99999999' 
ADCP,ioos:station:wmo:42890:1,2011-02-02T06:44:00Z,27.6250,-90.4410,15.2,185.0,14.2,-9999.0,'11111222,11111222,99999999' 
ADCP,ioos:station:wmo:42890:1,2011-02-02T07:04:00Z,27.6250,-90.4410,15.2,155.0,17.0,-9999.0,'11111222,11111222,99999999' 
ADCP,ioos:station:wmo:42890:1,2011-02-02T07:24:00Z,27.6250,-90.4410,15.2,156.0,16.7,-9999.0,'11111222,11111222,99999999' 
ADCP,ioos:station:wmo:42890:1,2011-02-02T07:44:00Z,27.6250,-90.4410,15.2,152.0,15.4,-99999.0,'1111122,1111122,1199999999' 
ADCP,ioos:station:wmo:42890:1,2011-02-02T08:04:00Z,27.6250,-90.4410,15.2,147.0,16.2,-9999.0,'11111222,11111222,99999999' 
ADCP,ioos:station:wmo:42890:1,2011-02-02T08:24:00Z,27.6250,-90.4410,15.2,139.0,16.1,-9999.0,'11111222,11111222,99999999' 
ADCP,ioos:station:wmo:42890:1,2011-02-02T08:44:00Z,27.6250,-90.4410,15.2,154.0,15.6,-99999.0,'1111122,1111122,1199999999' 
ADCP,ioos:station:wmo:42890:1,2011-02-02T09:04:00Z,27.6250,-90.4410,15.2,140.0,16.3,-9999.0,'11111222,11111222,99999999' 
ADCP,ioos:station:wmo:42890:1,2011-02-02T09:24:00Z,27.6250,-90.4410,15.2,142.0,16.8,-9999.0,'11111222,11111222,99999999' 
ADCP,ioos:station:wmo:42890:1,2011-02-02T09:44:00Z,27.6250,-90.4410,15.2,151.0,17.2,-9999.0,'11111222,11111222,99999999' 
ADCP,ioos:station:wmo:42890:1,2011-02-02T10:04:00Z,27.6250,-90.4410,15.2,179.0,16.0,-9999.0,'11111222,11111222,99999999' 
ADCP,ioos:station:wmo:42890:1,2011-02-02T10:24:00Z,27.6250,-90.4410,15.2,186.0,17.7,-9999.0,'11111222,11111222,99999999' 
ADCP,ioos:station:wmo:42890:1,2011-02-02T10:44:00Z,27.6250,-90.4410,15.2,199.0,17.3,-9999.0,'11111222,11111222,99999999' 
ADCP,ioos:station:wmo:42890:1,2011-02-02T11:04:00Z,27.6250,-90.4410,15.2,201.0,17.3,-9999.0,'11111222,11111222,99999999' 
ADCP,ioos:station:wmo:42890:1,2011-02-02T11:24:00Z,27.6250,-90.4410,15.2,203.0,16.5,-9999.0,'11111222,11111222,99999999' 
ADCP,ioos:station:wmo:42890:1,2011-02-02T11:44:00Z,27.6250,-90.4410,15.2,196.0,16.3,-9999.0,'11111222,11111222,99999999' 
ADCP,ioos:station:wmo:42890:1,2011-02-02T12:04:00Z,27.6250,-90.4410,15.2,204.0,17.2,-9999.0,'11111222,11111222,99999999' 
ADCP,ioos:station:wmo:42890:1,2011-02-02T12:24:00Z,27.6250,-90.4410,15.2,197.0,15.1,-9999.0,'11111222,11111222,99999999' 
ADCP,ioos:station:wmo:42890:1,2011-02-02T12:44:00Z,27.6250,-90.4410,15.2,182.0,16.8,-99999.0,'1111122,1111122,1199999999' 
ADCP,ioos:station:wmo:42890:1,2011-02-02T13:04:00Z,27.6250,-90.4410,15.2,214.0,16.1,-9999.0,'11111222,11111222,99999999' 
ADCP,ioos:station:wmo:42890:1,2011-02-02T13:24:00Z,27.6250,-90.4410,15.2,203.0,15.6,-9999.0,'11111222,11111222,99999999' 
ADCP,ioos:station:wmo:42890:1,2011-02-02T13:44:00Z,27.6250,-90.4410,15.2,212.0,14.9,-99999.0,'1111122,1111122,1199999999' 
ADCP,ioos:station:wmo:42890:1,2011-02-02T14:04:00Z,27.6250,-90.4410,15.2,219.0,14.7,-9999.0,'11111222,11111222,99999999' 
ADCP,ioos:station:wmo:42890:1,2011-02-02T14:24:00Z,27.6250,-90.4410,15.2,226.0,18.5,-9999.0,'11111222,11111222,99999999' 
ADCP,ioos:station:wmo:42890:1,2011-02-02T14:44:00Z,27.6250,-90.4410,15.2,233.0,24.3,-99999.0,'1111122,1111122,1199999999' 
ADCP,ioos:station:wmo:42890:1,2011-02-02T15:04:00Z,27.6250,-90.4410,15.2,179.0,13.1,-9999.0,'11111222,11111222,99999999' 
ADCP,ioos:station:wmo:42890:1,2011-02-02T15:24:00Z,27.6250,-90.4410,15.2,211.0,14.3,-9999.0,'11111222,11111222,99999999' 
ADCP,ioos:station:wmo:42890:1,2011-02-02T15:44:00Z,27.6250,-90.4410,15.2,197.0,11.9,-9999.0,'11111222,11111222,99999999' 
ADCP,ioos:station:wmo:42890:1,2011-02-02T16:04:00Z,27.6250,-90.4410,15.2,197.0,13.2,-9999.0,'11111222,11111222,99999999' 
ADCP,ioos:station:wmo:42890:1,2011-02-02T16:24:00Z,27.6250,-90.4410,15.2,193.0,12.4,-9999.0,'11111222,11111222,99999999' 
ADCP,ioos:station:wmo:42890:1,2011-02-02T16:44:00Z,27.6250,-90.4410,15.2,198.0,14.1,-9999.0,'11111222,11111222,99999999' 
ADCP,ioos:station:wmo:42890:1,2011-02-02T17:04:00Z,27.6250,-90.4410,15.2,207.0,12.9,-9999.0,'11111222,11111222,99999999' 
ADCP,ioos:station:wmo:42890:1,2011-02-02T17:24:00Z,27.6250,-90.4410,15.2,196.0,12.8,-9999.0,'11111222,11111222,99999999' 
ADCP,ioos:station:wmo:42890:1,2011-02-02T17:44:00Z,27.6250,-90.4410,15.2,210.0,12.2,-9999.0,'11111222,11111222,99999999' 
ADCP,ioos:station:wmo:42890:1,2011-02-02T18:04:00Z,27.6250,-90.4410,15.2,195.0,12.0,-9999.0,'11111222,11111222,99999999' 
ADCP,ioos:station:wmo:42890:1,2011-02-02T18:24:00Z,27.6250,-90.4410,15.2,164.0,11.2,-9999.0,'11111222,11111222,99999999' 
ADCP,ioos:station:wmo:42890:1,2011-02-02T18:44:00Z,27.6250,-90.4410,15.2,178.0,10.1,-99999.0,'1111122,1111122,1199999999' 
ADCP,ioos:station:wmo:42890:1,2011-02-02T19:04:00Z,27.6250,-90.4410,15.2,192.0,9.2,-9999.0,'11133222,11111222,99999999' 
ADCP,ioos:station:wmo:42890:1,2011-02-02T19:24:00Z,27.6250,-90.4410,15.2,168.0,11.6,-9999.0,'11111222,11111222,99999999' 
ADCP,ioos:station:wmo:42890:1,2011-02-02T19:44:00Z,27.6250,-90.4410,15.2,169.0,10.7,-99999.0,'1111122,1111122,1199999999' 
ADCP,ioos:station:wmo:42890:1,2011-02-02T20:04:00Z,27.6250,-90.4410,15.2,187.0,8.7,-9999.0,'11133222,11111222,99999999' 
ADCP,ioos:station:wmo:42890:1,2011-02-02T20:24:00Z,27.6250,-90.4410,15.2,186.0,10.8,-9999.0,'11111222,11111222,99999999' 
ADCP,ioos:station:wmo:42890:1,2011-02-02T20:44:00Z,27.6250,-90.4410,15.2,182.0,11.5,-9999.0,'11111222,11111222,99999999' 
ADCP,ioos:station:wmo:42890:1,2011-02-02T21:04:00Z,27.6250,-90.4410,15.2,170.0,10.2,-9999.0,'11111222,11111222,99999999' 
ADCP,ioos:station:wmo:42890:1,2011-02-02T21:24:00Z,27.6250,-90.4410,15.2,176.0,10.7,-9999.0,'11111222,11111222,99999999' 
ADCP,ioos:station:wmo:42890:1,2011-02-02T21:44:00Z,27.6250,-90.4410,15.2,181.0,10.0,-9999.0,'11111222,11111222,99999999' 
ADCP,ioos:station:wmo:42890:1,2011-02-02T22:04:00Z,27.6250,-90.4410,15.2,180.0,11.5,-9999.0,'11111222,11111222,99999999' 
ADCP,ioos:station:wmo:42890:1,2011-02-02T22:24:00Z,27.6250,-90.4410,15.2,169.0,11.7,-9999.0,'11111222,11111222,99999999' 
ADCP,ioos:station:wmo:42890:1,2011-02-02T22:44:00Z,27.6250,-90.4410,15.2,182.0,11.2,-9999.0,'11111222,11111222,99999999' 
ADCP,ioos:station:wmo:42890:1,2011-02-02T23:04:00Z,27.6250,-90.4410,15.2,164.0,12.1,-9999.0,'11111222,11111222,99999999' 
ADCP,ioos:station:wmo:42890:1,2011-02-02T23:24:00Z,27.6250,-90.4410,15.2,170.0,11.8,-9999.0,'11111222,11111222,99999999' 
ADCP,ioos:station:wmo:42890:1,2011-02-02T23:44:00Z,27.6250,-90.4410,15.2,174.0,12.7,-9999.0,'11111222,11111222,99999999' 
ADCP,ioos:station:wmo:42890:1,2011-02-03T00:04:00Z,27.6250,-90.4410,15.2,191.0,13.8,-9999.0,'11111222,11111222,99999999' 
ADCP,ioos:station:wmo:42890:1,2011-02-03T00:24:00Z,27.6250,-90.4410,15.2,186.0,14.0,-9999.0,'11111222,11111222,99999999' 
ADCP,ioos:station:wmo:42890:1,2011-02-03T00:44:00Z,27.6250,-90.4410,15.2,168.0,16.8,-99999.0,'1111122,1111122,1199999999' 
ADCP,ioos:station:wmo:42890:1,2011-02-03T01:04:00Z,27.6250,-90.4410,15.2,169.0,15.5,-9999.0,'11111222,11111222,99999999' 
ADCP,ioos:station:wmo:42890:1,2011-02-03T01:24:00Z,27.6250,-90.4410,15.2,173.0,15.6,-9999.0,'11111222,11111222,99999999' 
ADCP,ioos:station:wmo:42890:1,2011-02-03T01:44:00Z,27.6250,-90.4410,15.2,171.0,14.6,-9999.0,'11111222,11111222,99999999' 
ADCP,ioos:station:wmo:42890:1,2011-02-03T02:04:00Z,27.6250,-90.4410,15.2,190.0,13.3,-9999.0,'11111222,11111222,99999999' 
ADCP,ioos:station:wmo:42890:1,2011-02-03T02:24:00Z,27.6250,-90.4410,15.2,195.0,15.5,-9999.0,'11111222,11111222,99999999' 
ADCP,ioos:station:wmo:42890:1,2011-02-03T02:44:00Z,27.6250,-90.4410,15.2,195.0,15.0,-99999.0,'1111122,1111122,1199999999' 
ADCP,ioos:station:wmo:42890:1,2011-02-03T03:04:00Z,27.6250,-90.4410,15.2,183.0,16.0,-9999.0,'11111222,11111222,99999999' 
ADCP,ioos:station:wmo:42890:1,2011-02-03T03:24:00Z,27.6250,-90.4410,15.2,194.0,14.4,-9999.0,'11111222,11111222,99999999' 
ADCP,ioos:station:wmo:42890:1,2011-02-03T03:44:00Z,27.6250,-90.4410,15.2,174.0,15.9,-99999.0,'1111122,1111122,1199999999' 
ADCP,ioos:station:wmo:42890:1,2011-02-03T04:04:00Z,27.6250,-90.4410,15.2,180.0,15.7,-9999.0,'11111222,11111222,99999999' 
ADCP,ioos:station:wmo:42890:1,2011-02-03T04:24:00Z,27.6250,-90.4410,15.2,189.0,16.9,-9999.0,'11111222,11111222,99999999' 
ADCP,ioos:station:wmo:42890:1,2011-02-03T04:44:00Z,27.6250,-90.4410,15.2,191.0,15.2,-9999.0,'11111222,11111222,99999999' 
ADCP,ioos:station:wmo:42890:1,2011-02-03T05:04:00Z,27.6250,-90.4410,15.2,191.0,15.5,-9999.0,'11111222,11111222,99999999' 
ADCP,ioos:station:wmo:42890:1,2011-02-03T05:24:00Z,27.6250,-90.4410,15.2,190.0,14.0,-9999.0,'11111222,11111222,99999999' 
ADCP,ioos:station:wmo:42890:1,2011-02-03T05:44:00Z,27.6250,-90.4410,15.2,187.0,14.6,-9999.0,'11111222,11111222,99999999' 
ADCP,ioos:station:wmo:42890:1,2011-02-03T06:04:00Z,27.6250,-90.4410,15.2,199.0,14.2,-9999.0,'11111222,11111222,99999999' 
ADCP,ioos:station:wmo:42890:1,2011-02-03T06:24:00Z,27.6250,-90.4410,15.2,202.0,15.2,-9999.0,'11111222,11111222,99999999' 
ADCP,ioos:station:wmo:42890:1,2011-02-03T06:44:00Z,27.6250,-90.4410,15.2,192.0,12.3,-99999.0,'1111122,1111122,1199999999' 
ADCP,ioos:station:wmo:42890:1,2011-02-03T07:04:00Z,27.6250,-90.4410,15.2,207.0,13.9,-9999.0,'11111222,11111222,99999999' 
ADCP,ioos:station:wmo:42890:1,2011-02-03T07:24:00Z,27.6250,-90.4410,15.2,190.0,13.7,-9999.0,'11111222,11111222,99999999' 
ADCP,ioos:station:wmo:42890:1,2011-02-03T07:44:00Z,27.6250,-90.4410,15.2,197.0,13.5,-99999.0,'1111122,1111122,1199999999' 
ADCP,ioos:station:wmo:42890:1,2011-02-03T08:04:00Z,27.6250,-90.4410,15.2,192.0,12.7,-9999.0,'11111222,11111222,99999999' 
ADCP,ioos:station:wmo:42890:1,2011-02-03T08:24:00Z,27.6250,-90.4410,15.2,191.0,12.5,-9999.0,'11111222,11111222,99999999' 
ADCP,ioos:station:wmo:42890:1,2011-02-03T08:44:00Z,27.6250,-90.4410,15.2,181.0,13.1,-9999.0,'11111222,11111222,99999999' 
ADCP,ioos:station:wmo:42890:1,2011-02-03T09:04:00Z,27.6250,-90.4410,15.2,182.0,11.4,-9999.0,'11111222,11111222,99999999' 
ADCP,ioos:station:wmo:42890:1,2011-02-03T09:24:00Z,27.6250,-90.4410,15.2,172.0,12.4,-9999.0,'11111222,11111222,99999999' 
ADCP,ioos:station:wmo:42890:1,2011-02-03T09:44:00Z,27.6250,-90.4410,15.2,176.0,12.6,-9999.0,'11111222,11111222,99999999' 
ADCP,ioos:station:wmo:42890:1,2011-02-03T10:04:00Z,27.6250,-90.4410,15.2,171.0,15.3,-9999.0,'11111222,11111222,99999999' 
ADCP,ioos:station:wmo:42890:1,2011-02-03T10:24:00Z,27.6250,-90.4410,15.2,174.0,13.2,-9999.0,'11111222,11111222,99999999' 
ADCP,ioos:station:wmo:42890:1,2011-02-03T10:44:00Z,27.6250,-90.4410,15.2,168.0,14.0,-99999.0,'1111122,1111122,1199999999' 
ADCP,ioos:station:wmo:42890:1,2011-02-03T11:04:00Z,27.6250,-90.4410,15.2,180.0,14.1,-9999.0,'11111222,11111222,99999999' 
ADCP,ioos:station:wmo:42890:1,2011-02-03T11:24:00Z,27.6250,-90.4410,15.2,183.0,13.5,-9999.0,'11111222,11111222,99999999' 
ADCP,ioos:station:wmo:42890:1,2011-02-03T11:44:00Z,27.6250,-90.4410,15.2,171.0,12.8,-9999.0,'11111222,11111222,99999999' 
ADCP,ioos:station:wmo:42890:1,2011-02-03T12:04:00Z,27.6250,-90.4410,15.2,152.0,12.3,-9999.0,'11111222,11111222,99999999' 
ADCP,ioos:station:wmo:42890:1,2011-02-03T12:24:00Z,27.6250,-90.4410,15.2,162.0,12.6,-9999.0,'11111222,11111222,99999999' 
ADCP,ioos:station:wmo:42890:1,2011-02-03T12:44:00Z,27.6250,-90.4410,15.2,180.0,13.5,-99999.0,'1111122,1111122,1199999999' 
ADCP,ioos:station:wmo:42890:1,2011-02-03T13:04:00Z,27.6250,-90.4410,15.2,184.0,14.0,-9999.0,'11111222,11111222,99999999' 
ADCP,ioos:station:wmo:42890:1,2011-02-03T13:24:00Z,27.6250,-90.4410,15.2,173.0,14.5,-9999.0,'11111222,11111222,99999999' 
ADCP,ioos:station:wmo:42890:1,2011-02-03T13:44:00Z,27.6250,-90.4410,15.2,161.0,14.5,-99999.0,'1111122,1111122,1199999999' 
ADCP,ioos:station:wmo:42890:1,2011-02-03T14:04:00Z,27.6250,-90.4410,15.2,163.0,12.4,-9999.0,'11111222,11111222,99999999' 
ADCP,ioos:station:wmo:42890:1,2011-02-03T14:24:00Z,27.6250,-90.4410,15.2,162.0,13.0,-9999.0,'11111222,11111222,99999999' 
ADCP,ioos:station:wmo:42890:1,2011-02-03T14:44:00Z,27.6250,-90.4410,15.2,162.0,12.3,-99999.0,'1111122,1111122,1199999999' 
ADCP,ioos:station:wmo:42890:1,2011-02-03T15:04:00Z,27.6250,-90.4410,15.2,158.0,12.4,-9999.0,'11111222,11111222,99999999' 
ADCP,ioos:station:wmo:42890:1,2011-02-03T15:24:00Z,27.6250,-90.4410,15.2,146.0,16.8,-9999.0,'11111222,11111222,99999999' 
ADCP,ioos:station:wmo:42890:1,2011-02-03T15:44:00Z,27.6250,-90.4410,15.2,153.0,14.5,-9999.0,'11111222,11111222,99999999' 
ADCP,ioos:station:wmo:42890:1,2011-02-03T16:04:00Z,27.6250,-90.4410,15.2,156.0,15.1,-9999.0,'11111222,11111222,99999999' 
ADCP,ioos:station:wmo:42890:1,2011-02-03T16:24:00Z,27.6250,-90.4410,15.2,154.0,12.9,-9999.0,'11111222,11111222,99999999' 
ADCP,ioos:station:wmo:42890:1,2011-02-03T16:44:00Z,27.6250,-90.4410,15.2,154.0,16.0,-99999.0,'1111122,1111122,1199999999' 
ADCP,ioos:station:wmo:42890:1,2011-02-03T17:04:00Z,27.6250,-90.4410,15.2,150.0,14.3,-9999.0,'11111222,11111222,99999999' 